Flag for Japan Weather past 2 weeks in Kitakyushu, Japan

Now
52 °F

Clear.


Feels Like: 52 °F
Forecast: 49 / 63 °F
Wind: 1 mph from North

Location: Kitakyushu Airport

Current Time: Mar 30, 2015 at 4:49:05 AM

Latest Report: Mar 30, 2015 at 4:00 AM


Visibility: 10 mi

Pressure: 30.09 "Hg

Humidity: 82%

Dew point: 46 °F

Location of KitakyushuLocation

Historic Weather in Kitakyushu — Graph

°F

Kitakyushu temperature yesterday

Maximum temperature yesterday: 66 °F (at 2:00 PM)
Minimum temperature yesterday: 54 °F (at 4:00 AM)
Average temperature yesterday: 58 °F

Past Weeks' High & Low Weather Summary

 TemperatureHumidityPressure
High66 °F (Mar 21, 3:00 PM)100% (Mar 15, 6:00 PM)30.57 "Hg (Mar 15, 6:00 PM)
Low37 °F (Mar 26, 6:00 AM)23% (Mar 25, 5:00 PM)29.74 "Hg (Mar 18, 11:00 PM)
Average52 °F76%30.13 "Hg
* Reported Mar 15 3:00 AM — Mar 30 3:00 AM, Kitakyushu, Weather by CustomWeather, © 2015

Note: Actual official high and low records may vary slightly from our data, if they occured in-between our weather recording intervals... More about our weather records

Advertising

Kitakyushu weather history for previous 24 hours

 ConditionsComfort  
Time TempWeatherWind HumidityBarometerVisibility
3:00 AM
Mon, Mar 30
52 °FClear.5 mph94%30.09 "Hg10 mi
2:00 AM52 °FClear.3 mph88%30.07 "Hg10 mi
1:00 AM54 °FClear.2 mph82%30.07 "Hg10 mi
12:00 AM54 °FClear.3 mph88%30.07 "Hg10 mi
11:00 PM
Sun, Mar 29
55 °FClear.2 mph77%30.07 "Hg10 mi
10:00 PM55 °FClear.5 mph82%30.07 "Hg10 mi
9:00 PM57 °FClear.5 mph77%30.04 "Hg10 mi
8:00 PM57 °FClear.9 mph77%30.04 "Hg10 mi
7:00 PM59 °FClear.7 mph68%30.01 "Hg10 mi
6:00 PM59 °FSunny.12 mph68%29.98 "Hg10 mi
5:00 PM61 °FPassing clouds.15 mph63%29.95 "HgN/A
4:00 PM63 °FScattered clouds.13 mph59%29.95 "HgN/A
3:00 PM64 °FPassing clouds.16 mph60%29.95 "HgN/A
2:00 PM66 °FPassing clouds.15 mph52%29.95 "HgN/A
1:00 PM64 °FScattered clouds.13 mph60%29.98 "HgN/A
12:00 PM64 °FScattered clouds.15 mph68%29.98 "HgN/A
11:00 AM63 °FScattered clouds.3 mph68%30.01 "HgN/A
10:00 AM57 °FScattered clouds.3 mph82%30.01 "HgN/A
9:00 AM57 °FScattered clouds.2 mph77%30.01 "HgN/A
8:00 AM55 °FPartly sunny.2 mph88%30.01 "HgN/A
7:00 AM54 °FBroken clouds.6 mph94%30.01 "HgN/A
6:00 AM54 °FPassing clouds.3 mph94%29.98 "HgN/A
5:00 AM54 °FPassing clouds.3 mph94%29.98 "HgN/A
4:00 AM54 °FPassing clouds.1 mph94%29.98 "HgN/A
Weather by CustomWeather, © 2015

See weather overviewHow to use our weather pages